Hourly Data Report for July 27, 2013

All times are specified in Local Standard Time (LST). Add 1 hour to adjust for Daylight Saving Time where and when it is observed.

VICTORIA INTL A
BRITISH COLUMBIA

48°38'50.000" N
123°25'33.000" W
19.50 m
1018621
71799
YYJ

Download Data

Hourly Data (July 2013)
Hourly Data Report for July 27, 2013
Temp Definition
°C
Dew Point Temp Definition
°C
Rel Hum Definition
%
Wind Dir Definition
10's deg

Wind Spd Definition
km/h
Visibility Definition
km
Stn Press Definition
kPa
Hmdx Definition


Wind Chill Definition


Weather Definition


TIME
00:00 13.4 10.6 83 16 3 48.3 101.76     LegendNANA
01:00 12.3 10.1 86 34 1 48.3 101.77     Clear
02:00 12.1 10.4 89 2 1 48.3 101.78     LegendNANA
03:00 11.8 10.1 89 17 5 48.3 101.79     LegendNANA
04:00 10.5 8.9 90 16 9 48.3 101.84     Clear
05:00 10.5 9.6 94 18 2 48.3 101.85     LegendNANA
06:00 12.5 10.6 88 33 2 48.3 101.90     LegendNANA
07:00 13.1 10.5 84 12 7 48.3 101.90     Clear
08:00 14.8 10.7 76 9 10 48.3 101.89     LegendNANA
09:00 15.1 10.6 74 11 13 48.3 101.89     LegendNANA
10:00 17.3 10.7 65 12 13 48.3 101.86     Clear
11:00 18.3 10.5 60 13 14 48.3 101.84     LegendNANA
12:00 18.9 10.3 57 12 15 48.3 101.76     LegendNANA
13:00 19.7 10.8 56 10 14 48.3 101.72     Clear
14:00 20.8 10.7 52 12 13 48.3 101.67     LegendNANA
15:00 20.8 10.7 52 9 14 48.3 101.61     LegendNANA
16:00 20.6 10.8 53 12 14 48.3 101.53     Clear
17:00 20.7 10.3 51 13 13 48.3 101.48     LegendNANA
18:00 19.5 10.6 56 12 15 48.3 101.40     LegendNANA
19:00 18.5 10.4 59 12 15 48.3 101.36     Clear
20:00 16.5 10.4 67 11 8 48.3 101.35     LegendNANA
21:00 14.5 10.6 77 6 8 48.3 101.37     LegendNANA
22:00 13.8 10.4 80 15 2 48.3 101.37     Clear
23:00 13.6 10.3 80 23 3 48.3 101.36     LegendNANA

Notes on Data Quality.

Legend

  • E = Estimated
  • M = Missing
  • NA = Not Available
Date modified: